Regional Weather Roundup
Issued by NWS Sioux Falls, SD

Home | Current Version | Previous Version | Text Only | Print | Product List | Glossary Off
Versions: 1 2 3 4 5 6 7 8 9 10 11 12 13 14 15 16 17 18 19 20 21 22 23 24 25 26 27 28 29 30 31 32 33 34 35 36 37 38 39 40 41 42 43 44 45 46 47 48 49 50

000
ASUS43 KFSD 232102
RWRFSD

WEATHER ROUNDUP FOR SE SOUTH DAKOTA/SW MINNESOTA/NW IOWA
NATIONAL WEATHER SERVICE SIOUX FALLS SD
300 PM CST THU FEB 23 2017

NOTE: "FAIR" INDICATES FEW OR NO CLOUDS BELOW 12,000 FEET WITH NO
SIGNIFICANT WEATHER AND OR OBSTRUCTIONS TO VISIBILITY.


SDZ038>040-050-052>070-232200-
SOUTHEAST SOUTH DAKOTA

CITY           SKY/WX    TMP DP  RH WIND       PRES   REMARKS
BROOKINGS      CLOUDY    30  23  75 NE15G23   29.87R WCI  19
CHAMBERLAIN    LGT SNOW  32  29  88 N13G20    29.87F WCI  22
HURON          CLOUDY    32  23  69 NE20G25   29.92R WCI  20
MADISON        LGT SNOW  28  28 100 NE15G24   29.86S WCI  17
MITCHELL       LGT SNOW  31  29  92 NE18      29.88F FOG     WCI  19
SIOUX FALLS    LGT SNOW  30  29  96 NE17      29.85R VSB 3/4 WCI  18
WINNER         SNOW      30  27  88 N21       29.82F VSB 1/2 WCI  17
YANKTON        MOSUNNY   30  27  86 N28G33    29.75F WCI  16
$$

MNZ071-072-080-081-089-090-097-098-232200-
SOUTHWEST MINNESOTA

CITY           SKY/WX    TMP DP  RH WIND       PRES   REMARKS
FAIRMONT       CLOUDY    34  29  82 N14       29.84S WCI  25
JACKSON          N/A     32  28  86 NE22      29.84R WCI  19
LUVERNE        LGT SNOW  30  28  93 NE14G22   29.83F WCI  20
MARSHALL       CLOUDY    31  25  78 N13       29.91R WCI  21
MONTEVIDEO     PTSUNNY   30  27  86 NE14      29.94S WCI  20
PIPESTONE      PTSUNNY   30  23  74 NE16      29.84S WCI  19
REDWOOD FALLS  CLOUDY    32  23  69 N10       29.90S WCI  24
TRACY          CLOUDY    31  28  85 NE13      29.89S WCI  22
WINDOM         FLURRIES  30  27  86 N17       29.85S WCI  18
WORTHINGTON    FLURRIES  30  26  85 N24G31    29.81F WCI  16
$$

IAZ001>003-012>014-020>022-031-032-NEZ013-014-SDZ071-232200-
NORTHWEST IOWA

CITY           SKY/WX    TMP DP  RH WIND       PRES   REMARKS
CHEROKEE       LGT SNOW  33  31  91 NE14G21   29.76R WCI  24
DENISON        CLOUDY    37  34  87 NE17G25   29.66F
ESTHERVILLE    CLOUDY    33  29  85 N23G35    29.77F WCI  21
LE MARS        MIX PCPN  36  28  75 NE22      29.76S
ORANGE CITY    LGT SNOW  34  30  86 NE18G29   29.75F WCI  23
SHELDON        CLOUDY    32  32 100 N30       29.75F WCI  18
SIOUX CITY     MIX PCPN  37  30  75 NE12G28   29.73F
SPENCER        CLOUDY    34  28  79 NE26G36   29.77S WCI  21
STORM LAKE     LGT SNOW  34  32  93 NE23G31   29.73R WCI  22
$$

ABBREVIATIONS USED IN REMARKS
   TC - TEMPERATURE IN CELSIUS
  WCI - WIND CHILL INDEX
   HX - HEAT INDEX
  VSB - VISIBILITY




USA.gov is the U.S. government's official web portal to all federal, state and local government web resources and services.